| time (UTC) | temp F | wind direction | speed MPH | gust MPH | rain 1hr in | rain 24hr in | rain mn in | humidity % | barometer mb |
| 20260901190217 | 91 | 17 | 2.0 | 7.0 | 0.00 | 0.00 | 0.00 | 69 | 1013.4 |
| 20260901185724 | 90 | 0.0 | 0.0 | 0.00 | 0.00 | 0.00 | 68 | 1013.5 | |
| 20260901185221 | 90 | 7 | 1.0 | 2.0 | 0.00 | 0.00 | 0.00 | 67 | 1013.5 |
| 20260901184719 | 90 | 53 | 1.0 | 3.0 | 0.00 | 0.00 | 0.00 | 67 | 1013.6 |
| 20260901184216 | 90 | 56 | 3.0 | 8.0 | 0.00 | 0.00 | 0.00 | 66 | 1013.7 |
| 20260901183724 | 90 | 329 | 1.0 | 4.0 | 0.00 | 0.00 | 0.00 | 67 | 1013.7 |
| 20260901183221 | 89 | 0.0 | 0.0 | 0.00 | 0.00 | 0.00 | 69 | 1013.6 | |
| 20260901182739 | 90 | 113 | 1.0 | 6.0 | 0.00 | 0.00 | 0.00 | 66 | 1013.8 |
| 20260901182216 | 90 | 91 | 1.0 | 4.0 | 0.00 | 0.00 | 0.00 | 70 | 1014.0 |
| 20260901181723 | 90 | 354 | 3.0 | 7.0 | 0.00 | 0.00 | 0.00 | 71 | 1014.1 |
| 20260901181221 | 90 | 25 | 3.0 | 9.0 | 0.00 | 0.00 | 0.00 | 70 | 1014.2 |
| 20260901180739 | 90 | 10 | 1.0 | 2.0 | 0.00 | 0.00 | 0.00 | 70 | 1014.1 |
| 20260901180216 | 89 | 30 | 2.0 | 4.0 | 0.00 | 0.00 | 0.00 | 71 | 1014.2 |
| 20260901175723 | 88 | 46 | 1.0 | 4.0 | 0.00 | 0.00 | 0.00 | 72 | 1014.2 |
| 20260901175241 | 89 | 62 | 0.0 | 1.0 | 0.00 | 0.00 | 0.00 | 72 | 1014.3 |
| 20260901174738 | 89 | 50 | 4.0 | 8.0 | 0.00 | 0.00 | 0.00 | 70 | 1014.4 |
| 20260901174216 | 90 | 60 | 4.0 | 7.0 | 0.00 | 0.00 | 0.00 | 71 | 1014.6 |
| 20260901173723 | 90 | 69 | 3.0 | 7.0 | 0.00 | 0.00 | 0.00 | 70 | 1014.4 |
| 20260901173221 | 89 | 42 | 0.0 | 3.0 | 0.00 | 0.00 | 0.00 | 69 | 1014.5 |
| 20260901172718 | 89 | 51 | 0.0 | 1.0 | 0.00 | 0.00 | 0.00 | 71 | 1014.7 |
| 20260901172215 | 89 | 0.0 | 0.0 | 0.00 | 0.00 | 0.00 | 70 | 1014.6 | |
| 20260901171743 | 89 | 40 | 6.0 | 9.0 | 0.00 | 0.00 | 0.00 | 71 | 1014.7 |
| 20260901171220 | 89 | 73 | 1.0 | 3.0 | 0.00 | 0.00 | 0.00 | 72 | 1014.8 |
| 20260901170722 | 89 | 0.0 | 0.0 | 0.00 | 0.00 | 0.00 | 71 | 1014.8 | |
| 20260901170215 | 89 | 82 | 1.0 | 7.0 | 0.00 | 0.00 | 0.00 | 74 | 1014.9 |
| 20260901165723 | 88 | 0.0 | 0.0 | 0.00 | 0.00 | 0.00 | 71 | 1014.8 | |
| 20260901165220 | 88 | 351 | 0.0 | 2.0 | 0.00 | 0.00 | 0.00 | 73 | 1015.0 |
| 20260901164718 | 88 | 0.0 | 0.0 | 0.00 | 0.00 | 0.00 | 73 | 1015.0 | |
| 20260901164225 | 88 | 57 | 5.0 | 9.0 | 0.00 | 0.00 | 0.00 | 75 | 1015.2 |
| 20260901163723 | 87 | 45 | 2.0 | 8.0 | 0.00 | 0.00 | 0.00 | 77 | 1015.2 |
| 20260901163220 | 87 | 85 | 1.0 | 3.0 | 0.00 | 0.00 | 0.00 | 76 | 1015.2 |
| 20260901162717 | 87 | 40 | 0.0 | 1.0 | 0.00 | 0.00 | 0.00 | 76 | 1015.2 |
| 20260901162225 | 87 | 0.0 | 0.0 | 0.00 | 0.00 | 0.00 | 75 | 1015.3 | |
| 20260901161722 | 87 | 69 | 1.0 | 8.0 | 0.00 | 0.00 | 0.00 | 79 | 1015.3 |
| 20260901161220 | 86 | 0.0 | 0.0 | 0.00 | 0.00 | 0.00 | 78 | 1015.4 | |
| 20260901160718 | 86 | 50 | 0.0 | 1.0 | 0.00 | 0.00 | 0.00 | 79 | 1015.5 |
| 20260901160245 | 86 | 0.0 | 0.0 | 0.00 | 0.00 | 0.00 | 79 | 1015.4 | |
| 20260901155742 | 86 | 27 | 0.0 | 1.0 | 0.00 | 0.00 | 0.00 | 79 | 1015.5 |
| 20260901155219 | 86 | 68 | 2.0 | 7.0 | 0.00 | 0.00 | 0.00 | 80 | 1015.6 |
| 20260901154717 | 86 | 0.0 | 0.0 | 0.00 | 0.00 | 0.00 | 80 | 1015.6 | |
| 20260901154224 | 86 | 0.0 | 0.0 | 0.00 | 0.00 | 0.00 | 79 | 1015.5 | |
| 20260901153721 | 86 | 0.0 | 0.0 | 0.00 | 0.00 | 0.00 | 81 | 1015.5 | |
| 20260901153218 | 86 | 0.0 | 0.0 | 0.00 | 0.00 | 0.00 | 79 | 1015.6 | |
| 20260901152716 | 86 | 0.0 | 0.0 | 0.00 | 0.00 | 0.00 | 82 | 1015.5 | |
| 20260901152223 | 86 | 46 | 0.0 | 1.0 | 0.00 | 0.00 | 0.00 | 81 | 1015.6 |
| 20260901151721 | 85 | 68 | 0.0 | 2.0 | 0.00 | 0.00 | 0.00 | 82 | 1015.6 |
| 20260901151218 | 85 | 61 | 2.0 | 4.0 | 0.00 | 0.00 | 0.00 | 82 | 1015.6 |
| 20260901150716 | 85 | 0.0 | 0.0 | 0.00 | 0.00 | 0.00 | 83 | 1015.5 | |
| 20260901150244 | 85 | 73 | 1.0 | 4.0 | 0.00 | 0.00 | 0.00 | 83 | 1015.6 |
| 20260901145902 | 85 | 0.0 | 0.0 | 0.00 | 0.00 | 0.00 | 84 | 1015.5 | |
| 20260901145219 | 85 | 72 | 1.0 | 4.0 | 0.00 | 0.00 | 0.00 | 85 | 1015.5 |
| 20260901144716 | 84 | 21 | 2.0 | 6.0 | 0.00 | 0.00 | 0.00 | 86 | 1015.5 |
| 20260901144224 | 84 | 38 | 1.0 | 4.0 | 0.00 | 0.00 | 0.00 | 86 | 1015.6 |
| 20260901143721 | 84 | 0.0 | 0.0 | 0.00 | 0.00 | 0.00 | 87 | 1015.6 | |
| 20260901143219 | 84 | 0.0 | 0.0 | 0.00 | 0.00 | 0.00 | 87 | 1015.5 | |
| 20260901142717 | 84 | 0.0 | 0.0 | 0.00 | 0.00 | 0.00 | 87 | 1015.4 | |
| 20260901142244 | 83 | 25 | 1.0 | 4.0 | 0.00 | 0.00 | 0.00 | 88 | 1015.4 |
| 20260901141722 | 83 | 0.0 | 0.0 | 0.00 | 0.00 | 0.00 | 89 | 1015.4 | |
| 20260901141319 | 83 | 89 | 1.0 | 8.0 | 0.00 | 0.00 | 0.00 | 88 | 1015.3 |
| 20260901140737 | 82 | 0.0 | 0.0 | 0.00 | 0.00 | 0.00 | 91 | 1015.5 | |
| 20260901140224 | 82 | 72 | 0.0 | 2.0 | 0.00 | 0.00 | 0.00 | 90 | 1015.4 |
| 20260901135722 | 82 | 61 | 4.0 | 7.0 | 0.00 | 0.00 | 0.00 | 92 | 1015.3 |
| 20260901135219 | 82 | 61 | 1.0 | 4.0 | 0.00 | 0.00 | 0.00 | 91 | 1015.5 |
| 20260901134717 | 82 | 0.0 | 0.0 | 0.00 | 0.00 | 0.00 | 93 | 1015.3 | |
| 20260901134225 | 82 | 41 | 4.0 | 7.0 | 0.00 | 0.00 | 0.00 | 92 | 1015.2 |
| 20260901133742 | 82 | 72 | 2.0 | 6.0 | 0.00 | 0.00 | 0.00 | 92 | 1015.2 |
| 20260901133219 | 82 | 63 | 3.0 | 6.0 | 0.00 | 0.00 | 0.00 | 93 | 1015.2 |
| 20260901132718 | 81 | 0.0 | 0.0 | 0.00 | 0.00 | 0.00 | 94 | 1014.8 | |
| 20260901132225 | 81 | 0.0 | 0.0 | 0.00 | 0.00 | 0.00 | 94 | 1015.0 | |
| 20260901131722 | 81 | 0.0 | 0.0 | 0.00 | 0.00 | 0.00 | 94 | 1015.0 | |
| 20260901131219 | 80 | 73 | 0.0 | 4.0 | 0.00 | 0.00 | 0.00 | 94 | 1014.9 |
| 20260901130738 | 80 | 72 | 1.0 | 4.0 | 0.00 | 0.00 | 0.00 | 94 | 1014.9 |
| 20260901130225 | 80 | 83 | 2.0 | 4.0 | 0.00 | 0.00 | 0.00 | 94 | 1014.9 |
| 20260901125722 | 80 | 69 | 3.0 | 6.0 | 0.00 | 0.00 | 0.00 | 95 | 1015.1 |
| 20260901125219 | 80 | 87 | 2.0 | 6.0 | 0.00 | 0.00 | 0.00 | 95 | 1014.9 |
| 20260901124717 | 80 | 0.0 | 0.0 | 0.00 | 0.00 | 0.00 | 96 | 1014.9 | |
| 20260901124245 | 80 | 62 | 2.0 | 6.0 | 0.00 | 0.00 | 0.00 | 96 | 1015.0 |
| 20260901123722 | 80 | 78 | 3.0 | 6.0 | 0.00 | 0.00 | 0.00 | 97 | 1014.8 |
| 20260901123220 | 79 | 73 | 1.0 | 4.0 | 0.00 | 0.00 | 0.00 | 97 | 1014.8 |
| 20260901122718 | 79 | 0.0 | 0.0 | 0.00 | 0.00 | 0.00 | 97 | 1014.8 | |
| 20260901122215 | 79 | 0.0 | 0.0 | 0.00 | 0.00 | 0.00 | 98 | 1014.7 | |
| 20260901121723 | 78 | 0.0 | 0.0 | 0.00 | 0.00 | 0.00 | 98 | 1014.6 | |
| 20260901121220 | 78 | 66 | 0.0 | 2.0 | 0.00 | 0.00 | 0.00 | 98 | 1014.7 |
| 20260901120718 | 78 | 0.0 | 0.0 | 0.00 | 0.00 | 0.00 | 98 | 1014.7 | |
| 20260901120215 | 78 | 30 | 1.0 | 4.0 | 0.00 | 0.00 | 0.00 | 98 | 1014.6 |
| 20260901115723 | 78 | 53 | 0.0 | 4.0 | 0.00 | 0.00 | 0.00 | 98 | 1014.6 |
| 20260901115240 | 78 | 45 | 0.0 | 4.0 | 0.00 | 0.00 | 0.00 | 98 | 1014.6 |
| 20260901114718 | 78 | 0.0 | 0.0 | 0.00 | 0.00 | 0.00 | 98 | 1014.5 | |
| 20260901114215 | 78 | 0.0 | 0.0 | 0.00 | 0.00 | 0.00 | 99 | 1014.7 | |
| 20260901113723 | 78 | 0.0 | 0.0 | 0.00 | 0.00 | 0.00 | 99 | 1014.4 | |
| 20260901113220 | 77 | 0.0 | 0.0 | 0.00 | 0.00 | 0.00 | 99 | 1014.3 | |
| 20260901112717 | 77 | 0.0 | 0.0 | 0.00 | 0.00 | 0.00 | 99 | 1014.4 | |
| 20260901112224 | 77 | 0.0 | 0.0 | 0.00 | 0.00 | 0.00 | 99 | 1014.3 | |
| 20260901111722 | 77 | 0.0 | 0.0 | 0.00 | 0.00 | 0.00 | 99 | 1014.2 | |
| 20260901111219 | 77 | 0.0 | 0.0 | 0.00 | 0.00 | 0.00 | 99 | 1014.0 | |
| 20260901110837 | 77 | 0.0 | 0.0 | 0.00 | 0.00 | 0.00 | 99 | 1014.2 | |
| 20260901110225 | 77 | 0.0 | 0.0 | 0.00 | 0.00 | 0.00 | 98 | 1014.1 | |
| 20260901105722 | 77 | 0.0 | 0.0 | 0.00 | 0.00 | 0.00 | 98 | 1014.0 | |
| 20260901105219 | 77 | 0.0 | 0.0 | 0.00 | 0.00 | 0.00 | 99 | 1014.1 | |
| 20260901104717 | 77 | 0.0 | 0.0 | 0.00 | 0.00 | 0.00 | 98 | 1014.2 | |
| 20260901104225 | 77 | 0.0 | 0.0 | 0.00 | 0.00 | 0.00 | 98 | 1014.1 | |
| 20260901103723 | 77 | 0.0 | 0.0 | 0.00 | 0.00 | 0.00 | 98 | 1014.1 | |
| 20260901103220 | 77 | 0.0 | 0.0 | 0.00 | 0.00 | 0.00 | 98 | 1014.1 | |
| 20260901102738 | 77 | 0.0 | 0.0 | 0.00 | 0.00 | 0.00 | 98 | 1013.9 | |
| 20260901102225 | 77 | 0.0 | 0.0 | 0.00 | 0.00 | 0.00 | 98 | 1014.0 | |
| 20260901101723 | 77 | 0.0 | 0.0 | 0.00 | 0.00 | 0.00 | 98 | 1014.0 | |
| 20260901101221 | 77 | 0.0 | 0.0 | 0.00 | 0.00 | 0.00 | 98 | 1013.9 | |
| 20260901100718 | 77 | 0.0 | 0.0 | 0.00 | 0.00 | 0.00 | 98 | 1013.9 | |
| 20260901100215 | 77 | 0.0 | 0.0 | 0.00 | 0.00 | 0.00 | 98 | 1013.9 | |
| 20260901095723 | 77 | 0.0 | 0.0 | 0.00 | 0.00 | 0.00 | 98 | 1013.8 | |
| 20260901095221 | 77 | 0.0 | 0.0 | 0.00 | 0.00 | 0.00 | 98 | 1013.9 | |
| 20260901094739 | 77 | 0.0 | 0.0 | 0.00 | 0.00 | 0.00 | 98 | 1013.9 | |
| 20260901094216 | 77 | 0.0 | 0.0 | 0.00 | 0.00 | 0.00 | 98 | 1014.0 | |
| 20260901093724 | 77 | 0.0 | 0.0 | 0.00 | 0.00 | 0.00 | 98 | 1013.8 | |
| 20260901093221 | 77 | 0.0 | 0.0 | 0.00 | 0.00 | 0.00 | 98 | 1013.8 | |
| 20260901092739 | 77 | 0.0 | 0.0 | 0.00 | 0.00 | 0.00 | 98 | 1013.9 | |
| 20260901092216 | 77 | 0.0 | 0.0 | 0.00 | 0.00 | 0.00 | 98 | 1013.7 | |
| 20260901091744 | 77 | 0.0 | 0.0 | 0.00 | 0.00 | 0.00 | 98 | 1013.7 | |
| 20260901091221 | 77 | 0.0 | 0.0 | 0.00 | 0.00 | 0.00 | 98 | 1013.7 | |
| 20260901090719 | 77 | 0.0 | 0.0 | 0.00 | 0.00 | 0.00 | 98 | 1013.7 | |
| 20260901090216 | 77 | 0.0 | 0.0 | 0.00 | 0.00 | 0.00 | 98 | 1013.7 | |
| 20260901085724 | 77 | 79 | 0.0 | 4.0 | 0.00 | 0.00 | 0.00 | 98 | 1013.8 |
| 20260901085222 | 77 | 0.0 | 0.0 | 0.00 | 0.00 | 0.00 | 98 | 1013.6 | |
| 20260901084719 | 77 | 0.0 | 0.0 | 0.00 | 0.00 | 0.00 | 98 | 1013.8 | |
| 20260901084217 | 77 | 0.0 | 0.0 | 0.00 | 0.00 | 0.00 | 98 | 1013.5 | |
| 20260901083725 | 77 | 0.0 | 0.0 | 0.00 | 0.00 | 0.00 | 98 | 1013.7 | |
| 20260901083222 | 77 | 0.0 | 0.0 | 0.00 | 0.00 | 0.00 | 98 | 1013.6 | |
| 20260901082720 | 77 | 0.0 | 0.0 | 0.00 | 0.00 | 0.00 | 98 | 1013.5 | |
| 20260901082217 | 77 | 0.0 | 0.0 | 0.00 | 0.00 | 0.00 | 98 | 1013.5 | |
| 20260901081725 | 77 | 0.0 | 0.0 | 0.00 | 0.00 | 0.00 | 98 | 1013.7 | |
| 20260901081243 | 77 | 0.0 | 0.0 | 0.00 | 0.00 | 0.00 | 98 | 1013.8 | |
| 20260901080623 | 77 | 0.0 | 0.0 | 0.00 | 0.00 | 0.00 | 98 | 1013.7 | |
| 20260901080120 | 77 | 0.0 | 0.0 | 0.00 | 0.00 | 0.00 | 97 | 1013.8 | |
| 20260901075618 | 77 | 60 | 1.0 | 6.0 | 0.00 | 0.00 | 0.00 | 97 | 1013.7 |
| 20260901075115 | 77 | 0.0 | 0.0 | 0.00 | 0.00 | 0.00 | 97 | 1013.6 | |
| 20260901074623 | 77 | 0.0 | 0.0 | 0.00 | 0.00 | 0.00 | 97 | 1013.6 | |
| 20260901074121 | 77 | 0.0 | 0.0 | 0.00 | 0.00 | 0.00 | 97 | 1013.5 | |
| 20260901073618 | 77 | 0.0 | 0.0 | 0.00 | 0.00 | 0.00 | 97 | 1013.4 | |
| 20260901073116 | 77 | 0.0 | 0.0 | 0.00 | 0.00 | 0.00 | 97 | 1013.5 | |
| 20260901072623 | 77 | 0.0 | 0.0 | 0.00 | 0.00 | 0.00 | 97 | 1013.4 | |
| 20260901072121 | 77 | 0.0 | 0.0 | 0.00 | 0.00 | 0.00 | 97 | 1013.7 | |
| 20260901071618 | 77 | 0.0 | 0.0 | 0.00 | 0.00 | 0.00 | 97 | 1013.7 | |
| 20260901071116 | 77 | 0.0 | 0.0 | 0.00 | 0.00 | 0.00 | 97 | 1013.7 | |
| 20260901070644 | 77 | 0.0 | 0.0 | 0.00 | 0.00 | 0.00 | 97 | 1013.9 | |
| 20260901070121 | 77 | 71 | 0.0 | 1.0 | 0.00 | 0.00 | 0.00 | 97 | 1014.0 |
| 20260901065619 | 77 | 0.0 | 0.0 | 0.00 | 0.00 | 0.00 | 96 | 1014.1 | |
| 20260901065117 | 77 | 0.0 | 0.0 | 0.00 | 0.00 | 0.00 | 96 | 1014.0 | |
| 20260901064624 | 77 | 63 | 1.0 | 6.0 | 0.00 | 0.00 | 0.00 | 96 | 1014.1 |
| 20260901064122 | 77 | 71 | 2.0 | 4.0 | 0.00 | 0.00 | 0.00 | 96 | 1014.0 |
| 20260901063619 | 77 | 0.0 | 0.0 | 0.00 | 0.00 | 0.00 | 96 | 1014.0 | |
| 20260901063136 | 77 | 0.0 | 0.0 | 0.00 | 0.00 | 0.00 | 95 | 1014.1 | |
| 20260901062624 | 77 | 0.0 | 0.0 | 0.00 | 0.00 | 0.00 | 95 | 1014.2 | |
| 20260901062122 | 77 | 0.0 | 0.0 | 0.00 | 0.00 | 0.00 | 95 | 1014.2 | |
| 20260901061620 | 77 | 0.0 | 0.0 | 0.00 | 0.00 | 0.00 | 95 | 1014.3 | |
| 20260901061118 | 77 | 0.0 | 0.0 | 0.00 | 0.00 | 0.00 | 95 | 1014.5 | |
| 20260901060625 | 77 | 0.0 | 0.0 | 0.00 | 0.00 | 0.00 | 95 | 1014.4 | |
| 20260901060122 | 77 | 0.0 | 0.0 | 0.00 | 0.00 | 0.00 | 94 | 1014.5 | |
| 20260901055620 | 77 | 0.0 | 0.0 | 0.00 | 0.00 | 0.00 | 94 | 1014.6 | |
| 20260901055118 | 77 | 0.0 | 0.0 | 0.00 | 0.00 | 0.00 | 94 | 1014.6 | |
| 20260901054635 | 77 | 0.0 | 0.0 | 0.00 | 0.00 | 0.00 | 94 | 1014.8 | |
| 20260901054123 | 77 | 0.0 | 0.0 | 0.00 | 0.00 | 0.00 | 94 | 1014.9 | |
| 20260901053620 | 77 | 0.0 | 0.0 | 0.00 | 0.00 | 0.00 | 94 | 1014.9 | |
| 20260901053118 | 77 | 65 | 0.0 | 2.0 | 0.00 | 0.00 | 0.00 | 94 | 1014.8 |
| 20260901052618 | 77 | 0.0 | 0.0 | 0.00 | 0.00 | 0.00 | 94 | 1015.0 | |
| 20260901052126 | 78 | 0.0 | 0.0 | 0.00 | 0.00 | 0.00 | 94 | 1015.1 | |
| 20260901051624 | 78 | 0.0 | 0.0 | 0.00 | 0.00 | 0.00 | 94 | 1015.1 | |
| 20260901051119 | 77 | 0.0 | 0.0 | 0.00 | 0.00 | 0.00 | 95 | 1015.4 | |
| 20260901050616 | 77 | 0.0 | 0.0 | 0.00 | 0.00 | 0.00 | 95 | 1015.3 | |
| 20260901050124 | 77 | 0.0 | 0.0 | 0.00 | 0.00 | 0.00 | 95 | 1015.4 | |
| 20260901045622 | 77 | 0.0 | 0.0 | 0.00 | 0.00 | 0.00 | 95 | 1015.4 | |
| 20260901045119 | 77 | 0.0 | 0.0 | 0.00 | 0.00 | 0.00 | 95 | 1015.4 | |
| 20260901044616 | 78 | 0.0 | 0.0 | 0.00 | 0.00 | 0.00 | 95 | 1015.5 | |
| 20260901044124 | 78 | 0.0 | 0.0 | 0.00 | 0.00 | 0.00 | 95 | 1015.6 | |
| 20260901043622 | 78 | 0.0 | 0.0 | 0.00 | 0.00 | 0.00 | 95 | 1015.5 | |
| 20260901043120 | 78 | 0.0 | 0.0 | 0.00 | 0.00 | 0.00 | 95 | 1015.4 | |
| 20260901042617 | 78 | 0.0 | 0.0 | 0.00 | 0.00 | 0.00 | 95 | 1015.4 | |
| 20260901042125 | 78 | 0.0 | 0.0 | 0.00 | 0.00 | 0.00 | 95 | 1015.6 | |
| 20260901041622 | 78 | 0.0 | 0.0 | 0.00 | 0.00 | 0.00 | 95 | 1015.5 | |
| 20260901041120 | 78 | 0.0 | 0.0 | 0.00 | 0.00 | 0.00 | 95 | 1015.5 | |
| 20260901040618 | 78 | 0.0 | 0.0 | 0.00 | 0.00 | 0.00 | 95 | 1015.4 | |
| 20260901040115 | 78 | 0.0 | 0.0 | 0.00 | 0.00 | 0.00 | 95 | 1015.4 | |
| 20260901035643 | 78 | 0.0 | 0.0 | 0.00 | 0.00 | 0.02 | 95 | 1015.6 | |
| 20260901035121 | 78 | 0.0 | 0.0 | 0.00 | 0.00 | 0.02 | 95 | 1015.7 | |
| 20260901034618 | 78 | 0.0 | 0.0 | 0.00 | 0.00 | 0.02 | 95 | 1015.7 | |
| 20260901034135 | 78 | 0.0 | 0.0 | 0.00 | 0.00 | 0.02 | 95 | 1015.7 | |
| 20260901033623 | 78 | 0.0 | 0.0 | 0.00 | 0.00 | 0.02 | 95 | 1015.5 | |
| 20260901033121 | 78 | 0.0 | 0.0 | 0.00 | 0.00 | 0.02 | 95 | 1015.5 | |
| 20260901032618 | 78 | 0.0 | 0.0 | 0.00 | 0.00 | 0.02 | 95 | 1015.6 | |
| 20260901032116 | 78 | 0.0 | 0.0 | 0.00 | 0.00 | 0.02 | 95 | 1015.6 | |
| 20260901031624 | 78 | 0.0 | 0.0 | 0.00 | 0.00 | 0.02 | 94 | 1015.6 | |
| 20260901031202 | 78 | 0.0 | 0.0 | 0.00 | 0.00 | 0.02 | 94 | 1015.4 | |
| 20260901030618 | 78 | 0.0 | 0.0 | 0.00 | 0.00 | 0.02 | 94 | 1015.7 | |
| 20260901030116 | 78 | 0.0 | 0.0 | 0.00 | 0.00 | 0.02 | 94 | 1015.6 | |
| 20260901025623 | 78 | 64 | 0.0 | 2.0 | 0.00 | 0.00 | 0.02 | 94 | 1015.7 |
| 20260901025141 | 78 | 0.0 | 0.0 | 0.00 | 0.00 | 0.02 | 94 | 1015.6 | |
| 20260901024619 | 78 | 0.0 | 0.0 | 0.00 | 0.00 | 0.02 | 94 | 1015.5 | |
| 20260901024116 | 78 | 0.0 | 0.0 | 0.00 | 0.00 | 0.02 | 94 | 1015.3 | |
| 20260901023624 | 78 | 0.0 | 0.0 | 0.00 | 0.00 | 0.02 | 95 | 1015.4 | |
| 20260901023122 | 78 | 0.0 | 0.0 | 0.00 | 0.00 | 0.02 | 95 | 1015.4 | |
| 20260901022619 | 78 | 0.0 | 0.0 | 0.00 | 0.00 | 0.02 | 95 | 1015.4 | |
| 20260901022117 | 78 | 0.0 | 0.0 | 0.00 | 0.00 | 0.02 | 95 | 1015.5 | |
| 20260901021625 | 78 | 0.0 | 0.0 | 0.00 | 0.00 | 0.02 | 94 | 1015.6 | |
| 20260901021122 | 78 | 0.0 | 0.0 | 0.00 | 0.00 | 0.02 | 94 | 1015.4 | |
| 20260901020619 | 78 | 0.0 | 0.0 | 0.00 | 0.00 | 0.02 | 94 | 1015.5 | |
| 20260901020117 | 78 | 0.0 | 0.0 | 0.00 | 0.00 | 0.02 | 94 | 1015.3 | |
| 20260901015624 | 78 | 0.0 | 0.0 | 0.00 | 0.00 | 0.02 | 94 | 1015.3 | |
| 20260901015120 | 78 | 0.0 | 0.0 | 0.00 | 0.00 | 0.02 | 94 | 1015.5 | |
| 20260901014637 | 78 | 0.0 | 0.0 | 0.00 | 0.00 | 0.02 | 94 | 1015.3 | |
| 20260901014124 | 78 | 0.0 | 0.0 | 0.00 | 0.00 | 0.02 | 94 | 1015.1 | |
| 20260901013620 | 78 | 0.0 | 0.0 | 0.00 | 0.00 | 0.02 | 94 | 1015.1 | |
| 20260901013116 | 78 | 0.0 | 0.0 | 0.00 | 0.00 | 0.02 | 94 | 1015.0 | |
| 20260901012623 | 78 | 0.0 | 0.0 | 0.00 | 0.00 | 0.02 | 94 | 1015.0 | |
| 20260901012120 | 78 | 0.0 | 0.0 | 0.00 | 0.00 | 0.02 | 94 | 1015.0 | |
| 20260901011616 | 78 | 0.0 | 0.0 | 0.00 | 0.00 | 0.02 | 94 | 1014.9 | |
| 20260901011123 | 78 | 0.0 | 0.0 | 0.00 | 0.00 | 0.02 | 94 | 1014.9 | |
| 20260901010639 | 78 | 0.0 | 0.0 | 0.00 | 0.00 | 0.02 | 94 | 1014.7 | |
| 20260901010125 | 78 | 0.0 | 0.0 | 0.00 | 0.00 | 0.02 | 94 | 1014.8 | |
| 20260901005622 | 78 | 0.0 | 0.0 | 0.00 | 0.00 | 0.02 | 94 | 1015.0 | |
| 20260901005118 | 78 | 0.0 | 0.0 | 0.00 | 0.00 | 0.02 | 94 | 1015.0 | |
| 20260901004625 | 78 | 0.0 | 0.0 | 0.00 | 0.00 | 0.02 | 94 | 1015.1 | |
| 20260901004121 | 78 | 0.0 | 0.0 | 0.00 | 0.00 | 0.02 | 94 | 1014.9 | |
| 20260901003618 | 78 | 0.0 | 0.0 | 0.00 | 0.00 | 0.02 | 94 | 1014.8 | |
| 20260901003145 | 78 | 0.0 | 0.0 | 0.00 | 0.00 | 0.02 | 93 | 1014.7 | |
| 20260901002621 | 78 | 0.0 | 0.0 | 0.00 | 0.00 | 0.02 | 93 | 1014.7 | |
| 20260901002118 | 78 | 0.0 | 0.0 | 0.00 | 0.00 | 0.02 | 93 | 1014.6 | |
| 20260901001625 | 78 | 0.0 | 0.0 | 0.00 | 0.00 | 0.02 | 93 | 1014.6 | |
| 20260901001121 | 78 | 0.0 | 0.0 | 0.00 | 0.00 | 0.02 | 94 | 1014.6 | |
| 20260901000617 | 78 | 0.0 | 0.0 | 0.00 | 0.00 | 0.02 | 93 | 1014.8 | |
| 20260901000124 | 78 | 0.0 | 0.0 | 0.00 | 0.00 | 0.02 | 93 | 1014.9 | |
| 20260831235621 | 78 | 0.0 | 0.0 | 0.00 | 0.00 | 0.02 | 92 | 1014.8 | |
| 20260831235117 | 78 | 0.0 | 0.0 | 0.00 | 0.00 | 0.02 | 92 | 1014.7 | |
| 20260831234624 | 78 | 0.0 | 0.0 | 0.00 | 0.00 | 0.02 | 93 | 1014.6 | |
| 20260831234120 | 79 | 0.0 | 0.0 | 0.00 | 0.00 | 0.02 | 92 | 1014.6 | |
| 20260831233637 | 79 | 0.0 | 0.0 | 0.00 | 0.00 | 0.02 | 92 | 1014.7 | |
| 20260831233123 | 79 | 0.0 | 0.0 | 0.00 | 0.00 | 0.02 | 91 | 1014.8 | |
| 20260831232620 | 79 | 0.0 | 0.0 | 0.00 | 0.00 | 0.02 | 92 | 1014.8 | |
| 20260831232116 | 79 | 89 | 2.0 | 6.0 | 0.00 | 0.00 | 0.02 | 91 | 1015.1 |
| 20260831231643 | 79 | 44 | 1.0 | 3.0 | 0.00 | 0.00 | 0.02 | 91 | 1015.1 |
| 20260831231120 | 80 | 43 | 5.0 | 9.0 | 0.00 | 0.00 | 0.02 | 91 | 1015.1 |
| 20260831230636 | 80 | 57 | 6.0 | 8.0 | 0.00 | 0.00 | 0.02 | 90 | 1015.0 |
| 20260831230522 | 80 | 60 | 6.0 | 10.0 | 0.00 | 0.00 | 0.02 | 90 | 1015.0 |
| 20260831230059 | 80 | 64 | 5.0 | 9.0 | 0.00 | 0.00 | 0.02 | 89 | 1015.1 |
| 20260831225515 | 80 | 64 | 5.0 | 9.0 | 0.00 | 0.00 | 0.02 | 90 | 1015.1 |
| 20260831225041 | 80 | 96 | 5.0 | 10.0 | 0.00 | 0.00 | 0.02 | 89 | 1014.9 |
| 20260831224518 | 80 | 81 | 5.0 | 9.0 | 0.00 | 0.00 | 0.02 | 89 | 1014.9 |
| 20260831224025 | 80 | 87 | 5.0 | 8.0 | 0.00 | 0.00 | 0.02 | 89 | 1014.9 |
| 20260831223621 | 80 | 94 | 2.0 | 6.0 | 0.00 | 0.00 | 0.02 | 88 | 1014.8 |
| 20260831223038 | 79 | 99 | 5.0 | 10.0 | 0.00 | 0.00 | 0.02 | 89 | 1014.8 |
| 20260831222524 | 80 | 72 | 6.0 | 11.0 | 0.00 | 0.00 | 0.02 | 88 | 1014.8 |
| 20260831222041 | 80 | 94 | 6.0 | 10.0 | 0.00 | 0.00 | 0.02 | 89 | 1014.8 |
| 20260831221517 | 79 | 87 | 7.0 | 11.0 | 0.00 | 0.00 | 0.02 | 89 | 1014.7 |
| 20260831221024 | 80 | 101 | 3.0 | 7.0 | 0.00 | 0.00 | 0.02 | 90 | 1014.5 |
| 20260831220521 | 80 | 91 | 6.0 | 9.0 | 0.00 | 0.00 | 0.02 | 89 | 1014.6 |
| 20260831220017 | 80 | 99 | 8.0 | 14.0 | 0.00 | 0.00 | 0.02 | 90 | 1014.6 |
| 20260831215523 | 80 | 70 | 9.0 | 14.0 | 0.00 | 0.00 | 0.02 | 89 | 1014.4 |
| 20260831215019 | 80 | 98 | 9.0 | 13.0 | 0.00 | 0.01 | 0.02 | 88 | 1014.3 |
| 20260831214515 | 81 | 108 | 12.0 | 19.0 | 0.00 | 0.01 | 0.02 | 86 | 1014.4 |
| 20260831214022 | 82 | 92 | 8.0 | 21.0 | 0.00 | 0.01 | 0.02 | 85 | 1014.2 |
| 20260831213517 | 82 | 57 | 8.0 | 13.0 | 0.00 | 0.02 | 0.02 | 82 | 1013.9 |
| 20260831213024 | 82 | 59 | 0.0 | 4.0 | 0.00 | 0.04 | 0.02 | 80 | 1013.7 |
| 20260831212520 | 82 | 0.0 | 0.0 | 0.00 | 0.04 | 0.02 | 81 | 1013.6 | |
| 20260831212016 | 82 | 0.0 | 0.0 | 0.00 | 0.05 | 0.02 | 81 | 1013.5 | |
| 20260831211522 | 82 | 2 | 0.0 | 2.0 | 0.00 | 0.06 | 0.02 | 80 | 1013.7 |
| 20260831211017 | 82 | 0.0 | 0.0 | 0.00 | 0.07 | 0.02 | 81 | 1013.7 | |
| 20260831210524 | 82 | 324 | 0.0 | 6.0 | 0.00 | 0.08 | 0.02 | 82 | 1013.6 |
| 20260831210020 | 82 | 0.0 | 0.0 | 0.00 | 0.08 | 0.02 | 81 | 1013.7 | |
| 20260831205537 | 82 | 0.0 | 0.0 | 0.00 | 0.09 | 0.02 | 84 | 1013.6 | |
| 20260831205024 | 82 | 0.0 | 0.0 | 0.00 | 0.09 | 0.02 | 84 | 1013.6 | |
| 20260831204520 | 82 | 312 | 0.0 | 1.0 | 0.00 | 0.09 | 0.02 | 85 | 1013.6 |
| 20260831204016 | 82 | 0.0 | 0.0 | 0.00 | 0.48 | 0.02 | 84 | 1013.8 | |
| 20260831203525 | 82 | 0.0 | 0.0 | 0.00 | 0.48 | 0.02 | 84 | 1013.7 | |
| 20260831203020 | 82 | 312 | 0.0 | 1.0 | 0.00 | 0.48 | 0.02 | 82 | 1013.9 |
| 20260831202525 | 83 | 0.0 | 0.0 | 0.00 | 0.48 | 0.02 | 83 | 1013.8 |